Regional Weather Roundup
Issued by NWS Kansas City/Pleasant Hill, MO

Home | Current Version | Previous Version | Text Only | Print | Product List | Glossary On
Versions: 1 2 3 4 5 6 7 8 9 10 11 12 13 14 15 16 17 18 19 20 21 22 23 24 25 26 27 28 29 30 31 32 33 34 35 36 37 38 39 40 41 42 43 44 45 46 47 48 49 50
413
ASUS43 KEAX 122310
RWREAX

WEATHER ROUNDUP FOR EASTERN KANSAS AND NORTHWEST MISSOURI
NATIONAL WEATHER SERVICE KANSAS CITY/PLEASANT HILL MO
500 PM CST TUE DEC 12 2017

KSZ040-057-103>105-MOZ028-029-037-043-130000-
...KANSAS CITY METROPOLITAN AREA...

CITY           SKY/WX    TMP DP  RH WIND       PRES   REMARKS
K.C. INTL      PTCLDY    35  22  58 S5        30.13F WCI  31
K.C. DOWNTOWN  MOCLDY    40  22  48 SW3       30.15F
LEES SUMMIT    CLEAR     37  20  50 W6        30.16F WCI  32
OLATHE - IXD   CLEAR     38  24  57 W5        30.16F WCI  34
OLATHE - OJC   CLEAR     38  24  57 NW5       30.15F WCI  34
LAWRENCE       CLEAR     40  26  57 W5        30.15F

$$

MOZ001>008-011>017-020>025-030>033-038>040-044>046-053-054-130000-
...NORTHERN AND CENTRAL MISSOURI...

CITY           SKY/WX    TMP DP  RH WIND       PRES   REMARKS
ST. JOSEPH     PTCLDY    35  24  64 S6        30.13F WCI  30
MOSBY          CLEAR     36  21  55 CALM      30.15F
WARRENSBURG    CLEAR     34  16  47 SW6       30.16F WCI  29
WHITEMAN AFB   CLEAR     35  10  35 W7        30.12F WCI  29
CLINTON        CLEAR     36  12  38 W6        30.18F WCI  31
SEDALIA        PTCLDY    36   7  29 W6        30.17  WCI  31
WARSAW         NOT AVBL
CHILLICOTHE      N/A     34  17  50 W3        30.15F
KIRKSVILLE     PTCLDY    30   9  41 W6        30.12F WCI  24

$$

MOZ041-047>049-056>058-063>065-088>090-097-130000-
...EASTERN AND SOUTHERN MISSOURI...

CITY           SKY/WX    TMP DP  RH WIND       PRES   REMARKS
ST. LOUIS INTL MOCLDY    32   1  26 W8        30.14F WCI  25
SPIRIT OF STL  CLEAR     32   1  26 NW6       30.14F WCI  26
COLUMBIA       CLEAR     31   3  30 W6        30.15F WCI  25
JEFFERSON CITY PTCLDY    34   4  28 W7        30.17F WCI  28
ROLLA          PTCLDY    31   3  30 W5        30.15F WCI  26
OSAGE BEACH    PTCLDY    35   7  31 W6        30.17F WCI  30
SPRINGFIELD    CLEAR     36   7  29 W7        30.17F WCI  30
BRANSON        CLEAR     39   9  28 W7        30.18F WCI  34
JOPLIN         PTCLDY    37  16  42 W6        30.21F WCI  32
WEST PLAINS    CLEAR     36   6  28 W7        30.15F WCI  30

$$

IAZ060-094-KSZ022-034>040-054-083-096-NEZ052-066-093-130000-
...KANSAS...SOUTHEAST NEBRASKA AND IOWA...

CITY           SKY/WX    TMP DP  RH WIND       PRES   REMARKS
TOPEKA         CLEAR     43  28  55 SW3       30.13F
MANHATTAN      CLEAR     46  27  47 SW7       30.12F
EMPORIA        CLEAR     43  26  51 SW7       30.14F
CHANUTE        CLEAR     43  27  53 SW5       30.18F
WICHITA        CLEAR     50  29  44 SW10      30.15F
OMAHA          PTCLDY    37  25  61 SE8       30.04F WCI  31
LINCOLN        CLEAR     45  25  45 SW3       30.05F
FALLS CITY     CLEAR     40  26  57 S6        30.09F
LAMONI         PTCLDY    30  18  60 SW6       30.08F WCI  24
DES MOINES     PTCLDY    31  18  58 SW7       30.05F WCI  24

$$





USA.gov is the U.S. government's official web portal to all federal, state and local government web resources and services.